Flag for U.S.A. Weather past 2 weeks in Hialeah, Florida, U.S.A.

Now
78 °F

Scattered clouds.


Feels Like: 79 °F
Forecast: 65 / 78 °F
Wind: 10 mph from North

Location: Opa Locka Airport


UV Index: 7 (High)

Visibility: 10 mi


Pressure: 29.99 "Hg

Humidity: 50%

Dew point: 58 °F

Location of HialeahLocation

Historic Weather in Hialeah

°F

Hialeah temperature yesterday

Maximum temperature yesterday: 88 °F (at 2:53 PM)
Minimum temperature yesterday: 68 °F (at 11:53 PM)
Average temperature yesterday: 78 °F

Past Weeks' High & Low Weather Summary

 TemperatureHumidityPressure
High91 °F (Apr 8, 2:53 PM)100% (Apr 19, 8:53 AM)30.27 "Hg (Apr 19, 8:53 AM)
Low63 °F (Apr 10, 5:53 AM)33% (Apr 10, 11:53 AM)29.78 "Hg (Apr 8, 4:53 PM)
Average76 °F69%30.02 "Hg
* Reported Apr 5 5:53 PM — Apr 20 5:53 PM, Hialeah, Weather by CustomWeather, © 2014

Note: Actual official high and low records may vary slightly from our data, if they occured in-between our weather recording intervals... More about our weather records

Advertising

Historic Weather Conditions — Data for Previous 24 hours

 ConditionsComfort  
Time TempWeatherWind HumidityBarometerVisibility
5:53 PM
Apr 20
78 °FScattered clouds.10 mph50%29.99 "Hg10 mi
4:53 PM77 °FOvercast.10 mph50%30.00 "Hg10 mi
3:53 PM78 °FScattered clouds.8 mph48%30.00 "Hg10 mi
2:53 PM76 °FScattered clouds.No wind50%30.02 "Hg10 mi
1:53 PM76 °FScattered clouds.9 mph50%30.03 "Hg10 mi
12:53 PM74 °FPartly sunny.12 mph53%30.04 "Hg10 mi
11:53 AM72 °FOvercast.16 mph57%30.05 "Hg10 mi
10:53 AM72 °FPartly sunny.13 mph57%30.06 "Hg10 mi
9:53 AM70 °FScattered clouds.12 mph61%30.04 "Hg10 mi
8:53 AM68 °FOvercast.13 mph65%30.03 "Hg10 mi
7:53 AM66 °FOvercast.12 mph70%30.02 "Hg10 mi
6:53 AM65 °FClear.12 mph73%29.99 "Hg10 mi
5:53 AM65 °FPassing clouds.12 mph78%29.97 "Hg10 mi
4:53 AM67 °FOvercast.12 mph73%29.96 "Hg10 mi
3:53 AM67 °FOvercast.12 mph73%29.96 "Hg10 mi
2:53 AM67 °FOvercast.10 mph76%29.98 "Hg10 mi
1:53 AM65 °FClear.7 mph78%30.00 "Hg10 mi
12:53 AM67 °FClear.9 mph76%30.01 "Hg10 mi
11:53 PM
Apr 19
68 °FClear.10 mph76%30.01 "Hg10 mi
10:53 PM69 °FClear.13 mph70%30.00 "Hg10 mi
9:53 PM71 °FClear.16 mph68%29.99 "Hg10 mi
8:53 PM74 °FPassing clouds.12 mph67%29.96 "Hg10 mi
7:53 PM76 °FPassing clouds.13 mph64%29.93 "Hg10 mi
Weather by CustomWeather, © 2014

See weather overview